Muncie, IN

2:17 AM EST on February 10, 2016 (GMT -0500)
Delaware County-Johnson

Weather History for KMIE - April, 2012

Change the Weather History Date:

Thursday, April 26, 2012

  Actual Average Record
Temperature  
Mean Temperature 52 °F 55 °F  
Max Temperature 67 °F 66 °F 85 °F (1990)
Min Temperature 37 °F 45 °F 31 °F (1972)
Degree Days  
Heating Degree Days 13 10  
Month to date heating degree days 310 383  
Since 1 July heating degree days 4561 5553  
Cooling Degree Days 0 1  
Month to date cooling degree days 4 9  
Year to date cooling degree days 41 10  
Growing Degree Days 7 (Base 50)    
Moisture  
Dew Point 50 °F    
Average Humidity 66    
Maximum Humidity 100    
Minimum Humidity 31    
Precipitation  
Precipitation 0.00 in 0.12 in 1.14 in (2007)
Month to date precipitation 0.95 3.18  
Year to date precipitation 8.11 10.67  
Sea Level Pressure  
Sea Level Pressure 29.70 in    
Wind  
Wind Speed 12 mph (NNW)    
Max Wind Speed 26 mph    
Max Gust Speed 33 mph    
Visibility 4 miles    
Events Fog    
T = Trace of Precipitation, MM = Missing Value Source: NWS Daily Summary

Daily Weather History Graph

Daily Weather History Graph

Search for Another Location

Airport or City:

Trip Planner

Search our weather history database for the weather conditions in past years. The results will help you decide how hot, cold, wet, or windy it might be!

Date:

Astronomy

Apr. 26, 2012 Rise Set
Actual Time 6:47 AM EDT 8:32 PM EDT
Civil Twilight 6:18 AM EDT 9:01 PM EDT
Nautical Twilight 5:42 AM EDT 9:36 PM EDT
Astronomical Twilight 5:05 AM EDT 10:14 PM EDT
Moon 10:25 AM EDT (4/26) 12:37 AM EDT (4/26)
Length of Visible Light 14h 43m
Length of Day
13h 45m
Waxing Crescent, 24% of the Moon is Illuminated
Apr 26
Waxing Crescent
Apr 29
First Quarter
May 5
Full
May 12
Last Quarter
May 20
New

Hourly Weather History & Observations

Time (EDT) Temp. Windchill Dew Point Humidity Pressure Visibility Wind Dir Wind Speed Gust Speed Precip Events Conditions
12:53 AM 57.0 °F - 54.0 °F 89% 29.64 in 5.0 mi SE 4.6 mph - N/A   Overcast
1:53 AM 55.0 °F - 54.0 °F 96% 29.61 in 4.0 mi SE 3.5 mph - N/A   Scattered Clouds
2:53 AM 57.9 °F - 55.0 °F 90% 29.59 in 7.0 mi South 3.5 mph - N/A   Scattered Clouds
3:51 AM 55.4 °F - 53.6 °F 94% 29.59 in 2.5 mi ESE 4.6 mph - N/A   Clear
3:53 AM 55.0 °F - 53.1 °F 93% 29.58 in 3.0 mi ESE 3.5 mph - N/A   Clear
4:27 AM 53.6 °F - 51.8 °F 94% 29.59 in 1.8 mi Calm Calm - N/A   Clear
4:33 AM 53.6 °F - 51.8 °F 94% 29.58 in 0.8 mi Calm Calm - N/A   Mist
4:44 AM 55.4 °F - 53.6 °F 94% 29.58 in 1.0 mi South 3.5 mph - N/A   Clear
4:53 AM 55.0 °F - 53.1 °F 93% 29.57 in 2.5 mi Calm Calm - N/A   Clear
5:29 AM 53.6 °F - 51.8 °F 94% 29.59 in 1.2 mi Calm Calm - N/A   Clear
5:42 AM 51.8 °F - 50.0 °F 94% 29.59 in 0.5 mi East 3.5 mph - N/A Fog Fog
5:53 AM 52.0 °F - 51.1 °F 97% 29.57 in 0.8 mi East 4.6 mph - N/A   Partly Cloudy
6:04 AM 51.8 °F - 51.8 °F 100% 29.59 in 1.5 mi SE 5.8 mph - N/A   Partly Cloudy
6:36 AM 51.8 °F - 51.8 °F 100% 29.61 in 0.8 mi Calm Calm - N/A   Mist
6:53 AM 52.0 °F - 51.1 °F 97% 29.60 in 0.5 mi Calm Calm - N/A Fog Fog
7:01 AM 53.6 °F - 51.8 °F 94% 29.62 in 0.8 mi Calm Calm - N/A   Mist
7:04 AM 53.6 °F - 51.8 °F 94% 29.62 in 1.0 mi Calm Calm - N/A   Mist
7:14 AM 51.8 °F - 50.0 °F 94% 29.63 in 0.2 mi Calm Calm - N/A Fog Fog
7:33 AM 51.8 °F - 51.8 °F 100% 29.63 in 1.0 mi Calm Calm - N/A   Mist
7:45 AM 51.8 °F - 51.8 °F 100% 29.64 in 0.8 mi Calm Calm - N/A   Mist
7:53 AM 53.1 °F - 51.1 °F 93% 29.63 in 1.0 mi Calm Calm - N/A   Partly Cloudy
8:45 AM 57.2 °F - 55.4 °F 94% 29.66 in 1.8 mi NW 3.5 mph - N/A   Mostly Cloudy
8:53 AM 59.0 °F - 57.0 °F 93% 29.65 in 1.8 mi NW 3.5 mph - N/A   Mostly Cloudy
9:00 AM 59.0 °F - 57.2 °F 94% 29.67 in 2.0 mi WNW 8.1 mph - N/A   Overcast
9:10 AM 59.0 °F - 57.2 °F 94% 29.68 in 2.0 mi NW 9.2 mph - N/A   Overcast
9:36 AM 59.0 °F - 55.4 °F 88% 29.68 in 2.5 mi NW 11.5 mph - N/A   Overcast
9:53 AM 59.0 °F - 55.9 °F 90% 29.68 in 3.0 mi NW 13.8 mph - N/A   Overcast
10:13 AM 59.0 °F - 55.4 °F 88% 29.70 in 3.0 mi NW 17.3 mph - N/A   Overcast
10:39 AM 60.8 °F - 55.4 °F 82% 29.72 in 4.0 mi NNW 15.0 mph - N/A   Haze
10:53 AM 61.0 °F - 54.0 °F 78% 29.71 in 5.0 mi North 15.0 mph - N/A   Haze
11:02 AM 60.8 °F - 53.6 °F 77% 29.73 in 6.0 mi North 18.4 mph - N/A   Haze
11:53 AM 62.1 °F - 54.0 °F 75% 29.74 in 6.0 mi NNW 17.3 mph 23.0 mph N/A   Haze
12:21 PM 62.6 °F - 53.6 °F 72% 29.76 in 6.0 mi NW 16.1 mph 20.7 mph N/A   Haze
12:53 PM 63.0 °F - 54.0 °F 72% 29.75 in 6.0 mi NW 13.8 mph - N/A   Haze
1:01 PM 62.6 °F - 53.6 °F 72% 29.77 in 6.0 mi NW 16.1 mph - N/A   Haze
1:46 PM 66.2 °F - 51.8 °F 60% 29.79 in 6.0 mi NW 15.0 mph 21.9 mph N/A   Haze
1:53 PM 64.9 °F - 52.0 °F 63% 29.78 in 7.0 mi WNW 12.7 mph 21.9 mph N/A   Mostly Cloudy
2:09 PM 66.2 °F - 51.8 °F 60% 29.80 in 8.0 mi NW 17.3 mph 24.2 mph N/A   Mostly Cloudy
2:53 PM 64.9 °F - 48.9 °F 56% 29.80 in 10.0 mi NNW 20.7 mph 27.6 mph N/A   Overcast
3:53 PM 64.9 °F - 45.0 °F 48% 29.83 in 10.0 mi NW 19.6 mph 27.6 mph N/A   Clear
4:53 PM 62.1 °F - 41.0 °F 46% 29.86 in 10.0 mi NNW 24.2 mph 32.2 mph N/A   Clear
5:53 PM 61.0 °F - 39.0 °F 44% 29.90 in 10.0 mi NNW 25.3 mph 29.9 mph N/A   Clear
6:53 PM 57.0 °F - 32.0 °F 39% 29.93 in 10.0 mi NNW 23.0 mph 28.8 mph N/A   Clear
7:53 PM 53.1 °F - 27.0 °F 37% 29.95 in 10.0 mi North 17.3 mph - N/A   Clear
8:53 PM 48.9 °F - 27.0 °F 43% 29.98 in 10.0 mi NNW 18.4 mph 24.2 mph N/A   Clear
9:53 PM 45.0 °F 38.5 °F 16.0 °F 31% 30.01 in 10.0 mi NNW 13.8 mph - N/A   Clear